Zurück zum Katalog

STARLINK-3765

AktivKommunikationVLEO
NORAD 52295·PAYLOAD·🇺🇸 United States

Gestartet Apr 21, 2022 von Cape Canaveral Space Force Station

Loading…

Nächste Überflüge (nächste 24 Stunden)

TLE

AktuellSource: CelesTrak SupGP

Epoche: Sep 15, 2026, 01:52 UTC

1 52295C 22041AL  26258.07826389  .00835460  00000+0  23710-2 0  2586
2 52295  53.1581 306.8998 0001077  91.3154 347.4104 15.92217661    13

Verfolge STARLINK-3765 in Echtzeit mit AllMySat

Download on the App Store